www.pogodaiklimat.ru

Погода и климат >> Архив погоды >> Украина >> Фастов


ПОГОДА в Фастове

  • Прогноз погоды в Фастове
  • Монитор погоды в Фастове

АРХИВ ПОГОДЫ в Фастове

Время (UTC), дата Ветер
(напр.,м/с)
 
Видим.   Явления Облачность Т
(С)
Тd
(С)
f
(%)
Тe
(С)
Тes
(С)
Комфортность P
(гПа)
Po
(гПа)
Тmin
(С)
Tmax
(С)
R
(мм)
R24
(мм)
S
(см)
18 13.09 СЗ 1 16 км 4/0
[Cs]
+20.4 +9.8 51 +23 +23 комфорт 1022.8 998.2 +29.8
21 13.09 штиль 0 14 км 3/0
[Ac trans]
+16.3 +9.8 65 +16 +16 1023.0 998.1
00 14.09 ЮЗ 2 13 км 1/0
[Ci fib]
+14.0 +9.5 74 +14 +14 1022.3 997.2
03 14.09 З 1 13 км 9/9 600 м
[Sc]
+15.5 +10.8 74 +16 +16 1021.8 996.8
06 14.09 СЗ 2 20 км 9/9 600 м
[Sc]
+17.1 +10.8 66 +17 +18 1023.0 998.1 +13.5
09 14.09 СЗ 2 20 км {ливн. осадки} 9/6 600 м
[Cb calv Ac und Ci]
+18.1 +9.4 57 +19 +21 1024.2 999.4
12 14.09 СЗ 3 20 км {ливн. осадки} 1/1 1000 м
[Cu hum]
+20.8 +4.6 35 +22 +27 комфорт 1023.8 999.2
15 14.09 СЗ 2 20 км 8/0
[Ci]
+19.1 +1.4 31 +20 +20 1023.8 999.1
18 14.09 штиль 0 15 км ясно +14.0 +3.1 48 +14 +14 1025.8 1000.6 +22.0 0.0
21 14.09 штиль 0 14 км 3/0
[Ci fib]
+10.0 +3.6 64 +10 +10 1027.0 1001.4
00 15.09 З 1 13 км ясно +8.2 +4.1 75 +8 +8 1026.7 1001.0
03 15.09 штиль 0 12 км ясно +7.3 +3.5 77 +7 +7 1026.8 1001.0
06 15.09 З 1 10 км 3/0
[Ci fib]
+12.3 +4.9 61 +13 +15 1026.6 1001.2 +6.4
12 15.09 З 3 20 км 8/1 1000 м
[Cu hum Ci fib]
+21.4 +4.5 33 +22 +26 комфорт 1022.1 997.6
15 15.09 З 3 20 км 9/0
[Ci fib]
+19.5 +3.2 34 +20 +21 1019.7 995.1
18 15.09 ЮЗ 2 15 км 6/0
[Ci fib]
+15.9 +3.9 45 +16 +16 1018.3 993.4 +21.8
21 15.09 ЮЗ 3 14 км 3/0
[Cs]
+13.3 +3.0 50 +12 +12 1016.8 991.8
00 16.09 ЮЗ 3 12 км 6/0
[Cs]
+13.6 +3.4 50 +13 +13 1015.7 990.7
03 16.09 З 2 12 км 4/0
[Ci fib]
+12.3 +4.4 58 +12 +12 1013.8 988.7
06 16.09 З 3 10 км 6/0
[Ci fib]
+16.3 +6.6 53 +16 +18 1012.8 988.1 +11.0
09 16.09 З 3 20 км 4/0
[Ac trans Ci fib]
+22.6 +6.2 35 +23 +29 комфорт 1011.4 987.3
12 16.09 З 4 20 км 8/3 1000 м
[Cu hum Ac trans]
+23.2 +8.0 38 +24 +26 комфорт 1009.9 985.9
15 16.09 З 4 20 км 9/4 1000 м
[Sc Ac trans]
+21.3 +7.5 41 +22 +22 комфорт 1009.3 985.1
18 16.09 З 1 15 км 9/4 1000 м
[Sc Ac trans]
+17.4 +7.3 51 +18 +18 1010.2 985.7 +25.2
21 16.09 З 1 14 км 9/9 1000 м
[Sc]
+16.5 +9.9 65 +17 +17 1009.9 985.3
00 17.09 З 1 14 км 9/6 600 м
[Sc Ac und]
+14.3 +8.8 69 +15 +15 1010.1 985.3
03 17.09 З 1 13 км 9/9 600 м
[Sc]
+11.9 +6.9 71 +12 +12 1010.3 985.3
06 17.09 З 2 10 км 9/5 600 м
[Sc Ac trans]
+13.8 +5.6 58 +13 +14 1010.7 985.9 +11.5
09 17.09 З 3 20 км 4/3 1000 м
[Cu med, cong Ci fib]
+18.0 +3.3 38 +18 +23 1009.5 985.0
12 17.09 З 4 20 км ясно +19.4 +0.4 28 +20 +24 1008.3 984.0
15 17.09 З 2 20 км 6/0
[Cc]
+17.7 +1.6 34 +18 +19 1007.1 982.7
18 17.09 ЮЗ 2 15 км 4/3 600 м
[Sc Ac trans]
+11.6 +4.6 62 +11 +11 1007.2 982.2 +20.0
21 17.09 З 2 14 км 9/9 600 м
[Sc]
+13.1 +5.8 61 +13 +13 1006.2 981.4
00 18.09 ЮЗ 2 14 км 6/0
[Ac trans]
+10.7 +4.6 66 +10 +10 1004.6 979.6
06 18.09 З 5 20 км 9/9 600 м
[Cb calv]
+10.7 +2.4 56 +8 +8 1005.5 980.5 +9.5
12 18.09 З 5 20 км {ливн. осадки} 8/8 600 м
[Cb calv]
+13.1 +1.0 44 +11 +12 1007.6 982.8
18 18.09 З 3 15 км {ливн. осадки} ясно +9.2 +5.5 78 +7 +7 1013.0 987.7 +14.0 2
00 19.09 З 2 11 км ясно +7.4 +4.9 84 +5 +5 1016.6 991.0
06 19.09 З 3 20 км 3/3 600 м
[Sc]
+9.1 +4.4 72 +7 +8 1018.1 992.7 +5.2
12 19.09 СЗ 3 20 км 8/8 600 м
[Cb calv]
+13.9 +3.8 51 +13 +14 1018.4 993.4
18 19.09 З 1 15 км ясно +9.0 +4.2 72 +9 +9 1019.8 994.3 +14.7
00 20.09 З 1 8000 м дымка ясно +4.5 +3.0 90 +3 +3 1020.1 994.2
06 20.09 З 1 4000 м дымка 10/10 600 м
[Sc]
+6.3 +4.9 91 +5 +5 1019.6 993.9 +2.8

 

Местоположение метеостанции Фастов (Киевская область, Украина): широта 50.08 долгота 29.92 высота над уровнем моря 209 м.

В архиве по умолчанию представлена погода в Фастове за последнюю неделю. Архивные данные за месяц целиком и за предыдущие месяцы, начиная с января 2011 года, Вы можете получить, выбрав интересующий диапазон дат из раскрывающегося списка и нажав кнопку "Ввод!".


*Определитесь, кто Вы:
робот инопланетянин человек

Внимание! Время в таблицах - всемирное. Для получения местного времени необходимо прибавить поправку, которая равна 2 ч.

Смотрите также архив погоды в соседних городах и на ближайших метеорологических станциях:

Погода в Белой Церкви (Киевская область, Украина) (39 км)
Погода в Киеве (город Киев, Украина) (58 км)
Погода в Вышгороде (Киевская область, Украина) (68 км)
Погода в Тетереве (Киевская область, Украина) (73 км)
Погода в Белополе (Винницкая область, Украина) (79 км)
Погода в Борисполе (Киевская область, Украина) (80 км)
Погода в Житомире (Житомирская область, Украина) (86 км)
Погода в Мироновке (Киевская область, Украина) (90 км)
Погода в Жашкове (Черкасская область, Украина) (93 км)
Погода в Барышевке (Киевская область, Украина) (105 км)

Пояснения к столбцам:

Ветер - указаны скорость ветра в м/с - средняя за 10 мин, порывы в срок и между сроками (в фигурных скобках) и направление, откуда дует ветер: С - северный, СВ - северо-восточный, В - восточный, ЮВ - юго-восточный, Ю - южный, ЮЗ - юго-западный, З - западный, СЗ - северо-западный.
Видимость - горизонтальная дальность видимости в метрах или километрах. При видимости от 1 до 10 км при отсутствии осадков обычно наблюдается дымка, при ухудшении видимости до 1 км и менее - туман. В сухую погоду видимость может ухудшаться дымом, пылью или мглою.
Явления - указаны атмосферные явления, наблюдавшиеся в срок или в последний час перед сроком; фигурными скобками обозначены явления, наблюдавшиеся между сроками (за 1-3 часа до срока); квадратными скобками обозначены град или гололедные отложения с указанием их диаметра в мм.
Облачность - указаны через наклонную черту общая и нижняя облачность в баллах и высота нижней границы облаков в метрах; квадратными скобками обозначены формы облаков: Ci - перистые, Cs - перисто-слоистые, Cc - перисто-кучевые, Ac - высококучевые, As - высокослоистые, Sc - слоисто-кучевые, Ns - слоисто-дождевые, Cu - кучевые, Cb - кучево-дождевые. Подробнее классификацию облаков см. в Атласе облаков (PDF).
T - Температура воздуха - температура, измеренная на высоте 2 м над землей.
Td - Температура точки росы - температура, при понижении до которой содержащийся в воздухе водяной пар достигнет насыщения.
f - Относительная влажность воздуха - влажноcть воздуха, измеренная на высоте 2 м над землей.
Te - Эффективная температура - температура, которую ощущает одетый по сезону человек в тени. Характеристика душности погоды. При расчете учитывается влияние влажности воздуха и скорости ветра на теплоощущения человека.
Tes - Эффективная температура на солнце - температура, которую ощущает человек, с поправкой на солнечный нагрев. Характеристика знойности погоды. Зависит от высоты солнца над горизонтом, облачности и скорости ветра. Ночью, в пасмурную погоду, а также при ветре 12 м/с и более поправка равна нулю.
P - Атмосферное давление - приведенное к уровню моря атмосферное давление.
Po - Атмосферное давление - измеренное на уровне метеостанции атмосферное давление.
Tmin - Минимальная температура - минимум температуры воздуха на высоте 2 м над землей.
Tmax - Максимальная температура - максимум температуры воздуха на высоте 2 м над землей.
R - Количество осадков - Количество выпавших осадков за период времени, мм. При наведении курсора мыши на число - период времени, за который выпало указанное количество осадков.
R24 - Количество осадков - Количество выпавших осадков за 24 часа, мм.
S - Снежный покров - Высота снежного покрова, см. При наведении курсора мыши на число - состояние снежного покрова и степень покрытия местности в баллах.